QPF
0.00 0.00 0.00 0.00 0.00 0.00 0.00 0.00 0.00 0.00 0.00 0.00 0.00 0.00 0.00 0.00 0.00 0.00 0.00 0.00 0.00 0.00 0.00 0.00 0.00 0.00 0.00 0.00 0.00 0.00 0.00 0.00 0.00
0.00 0.00 0.00 0.00 0.00 0.00 0.00 0.00 0.00 0.01 0.00 0.00 0.00 0.00 0.00 0.00 0.00 0.00 0.00 0.00 0.00 0.00 0.00 0.00 0.00 0.00 0.00 0.00 0.00 0.00 0.00 0.00 0.00
0.00 0.00 0.00 0.00 0.00 0.00 0.00 0.00 0.00 0.00 0.00 0.00 0.00 0.00 0.00 0.00 0.00 0.00 0.00 0.00 0.00 0.00 0.00 0.00 0.00 0.00 0.00 0.00 0.00 0.00 0.00 0.00 0.00
0.00 0.00 0.00 0.00 0.00 0.00 0.00 0.00 0.00 0.00 0.00 0.00 0.00 0.00 0.00 0.00 0.00 0.00 0.00 0.01 0.01 0.01 0.00 0.00 0.00 0.00 0.00 0.00 0.00 0.00 0.00 0.00 0.00
0.00 0.00 0.00 0.00 0.00 0.00 0.00 0.00 0.00 0.00 0.00 0.00 0.00 0.00 0.00 0.00 0.00 0.00 0.00 0.00 0.00 0.01 0.01 0.01 0.01 0.01 0.01 0.01 0.00 0.00 0.00 0.00 0.00
0.00 0.00 0.00 0.00 0.00 0.00 0.00 0.00 0.00 0.00 0.00 0.00 0.00 0.00 0.00 0.00 0.00 0.00 0.00 0.00 0.00 0.01 0.01 0.01 0.01 0.01 0.01 0.01 0.03 0.00 0.00 0.00 0.00
0.00 0.00 0.00 0.00 0.00 0.00 0.00 0.00 0.00 0.00 0.00 0.00 0.00 0.00 0.00 0.00 0.00 0.00 0.00 0.00 0.00 0.00 0.00 0.00 0.00 0.00 0.00 0.01 0.02 0.02 0.00 0.00 0.00
0.00 0.00 0.00 0.00 0.00 0.00 0.00 0.00 0.00 0.00 0.00 0.00 0.00 0.00 0.00 0.00 0.00 0.00 0.00 0.00 0.00 0.00 0.00 0.00 0.00 0.00 0.00 0.00 0.00 0.01 0.03 0.00 0.00
0.00 0.00 0.00 0.00 0.00 0.00 0.00 0.00 0.00 0.00 0.00 0.00 0.00 0.00 0.00 0.00 0.00 0.00 0.00 0.00 0.00 0.00 0.00 0.00 0.00 0.00 0.00 0.00 0.00 0.00 0.00 0.01 0.03
0.00 0.00 0.00 0.00 0.00 0.00 0.00 0.00 0.00 0.00 0.00 0.00 0.00 0.00 0.00 0.00 0.00 0.00 0.00 0.00 0.00 0.00 0.00 0.00 0.00 0.00 0.00 0.00 0.00 0.00 0.00 0.00 0.00
0.00 0.00 0.00 0.00 0.00 0.00 0.00 0.00 0.00 0.00 0.00 0.00 0.00 0.00 0.00 0.00 0.00 0.00 0.00 0.00 0.00 0.00 0.00 0.00 0.00 0.00 0.00 0.00 0.00 0.00 0.00 0.00 0.00
0.00 0.00 0.00 0.00 0.00 0.00 0.00 0.00 0.00 0.00 0.00 0.00 0.00 0.00 0.00 0.00 0.00 0.00 0.00 0.00 0.00 0.00 0.00 0.00 0.00 0.00 0.00 0.00 0.00 0.00 0.00 0.00 0.00
0.00 0.00 0.00 0.00 0.00 0.00 0.00 0.00 0.00 0.00 0.00 0.00 0.00 0.00 0.00 0.00 0.00 0.00 0.00 0.00 0.00 0.00 0.00 0.00 0.00 0.00 0.00 0.00 0.00 0.00 0.00 0.00 0.00
0.00 0.00 0.00 0.00 0.00 0.00 0.00 0.00 0.00 0.00 0.00 0.00 0.00 0.00 0.00 0.00 0.00 0.00 0.00 0.00 0.00 0.00 0.00 0.00 0.00 0.00 0.00 0.00 0.00 0.00 0.00 0.00 0.00
0.00 0.00 0.00 0.00 0.00 0.00 0.00 0.00 0.00 0.00 0.00 0.00 0.00 0.00 0.00 0.00 0.00 0.00 0.00 0.00 0.00 0.00 0.00 0.00 0.00 0.00 0.00 0.00 0.00 0.00 0.00 0.00 0.00
0.00 0.00 0.00 0.00 0.00 0.00 0.00 0.00 0.00 0.00 0.00 0.00 0.00 0.00 0.00 0.00 0.00 0.00 0.00 0.00 0.00 0.00 0.00 0.00 0.00 0.00 0.00 0.00 0.00 0.00 0.00 0.00 0.00
0.00 0.00 0.00 0.00 0.00 0.00 0.00 0.00 0.00 0.00 0.00 0.00 0.00 0.00 0.00 0.00 0.00 0.00 0.00 0.00 0.00 0.00 0.00 0.00 0.00 0.00 0.00 0.00 0.00 0.00 0.00 0.00 0.00
0.00 0.00 0.00 0.00 0.00 0.00 0.00 0.00 0.00 0.00 0.00 0.00 0.00 0.00 0.00 0.00 0.00 0.00 0.00 0.00 0.00 0.00 0.00 0.00 0.00 0.00 0.00 0.00 0.00 0.00 0.00 0.00 0.00
0.00 0.00 0.00 0.00 0.00 0.00 0.00 0.00 0.00 0.00 0.00 0.00 0.00 0.00 0.00 0.00 0.00 0.00 0.00 0.00 0.00 0.00 0.00 0.00 0.00 0.00 0.00 0.00 0.00 0.00 0.00 0.00 0.00
0.00 0.00 0.00 0.00 0.00 0.00 0.00 0.00 0.00 0.00 0.00 0.00 0.00 0.00 0.00 0.00 0.00 0.00 0.00 0.00 0.00 0.00 0.00 0.00 0.00 0.00 0.00 0.00 0.00 0.00 0.00 0.00 0.00
MSLP
1016.41 1016.50 1016.37 1016.32 1016.35 1016.22 1016.20 1016.24 1016.24 1016.24 1016.29 1016.33 1016.27 1016.33 1016.43 1016.49 1016.51 1016.76 1016.82 1016.96 1016.90 1016.92 1017.04 1017.02 1017.08 1017.13 1017.21 1017.21 1017.22 1017.33 1017.46 1017.50 1017.58
1016.56 1016.61 1016.62 1016.59 1016.50 1016.46 1016.45 1016.39 1016.20 1016.27 1016.44 1016.48 1016.43 1016.50 1016.70 1016.81 1016.78 1016.86 1016.89 1016.96 1016.99 1017.02 1017.15 1017.17 1017.22 1017.22 1017.22 1017.26 1017.34 1017.40 1017.54 1017.59 1017.70
1016.61 1016.79 1016.75 1016.77 1016.71 1016.67 1016.69 1016.55 1016.22 1016.36 1016.49 1016.64 1016.51 1016.57 1016.72 1016.89 1016.89 1017.03 1016.98 1017.04 1016.96 1017.06 1017.22 1017.23 1017.24 1017.27 1017.29 1017.35 1017.38 1017.46 1017.58 1017.68 1017.78
1016.81 1016.86 1016.88 1016.87 1016.82 1016.87 1016.90 1016.86 1016.55 1016.39 1016.67 1016.79 1016.82 1016.76 1016.84 1016.95 1017.06 1016.97 1017.24 1017.17 1017.10 1017.06 1017.15 1017.20 1017.22 1017.26 1017.32 1017.41 1017.46 1017.50 1017.63 1017.79 1017.91
1016.90 1017.01 1017.03 1017.03 1016.97 1016.94 1016.94 1016.99 1017.00 1016.91 1016.90 1016.92 1016.94 1017.02 1017.17 1017.15 1017.28 1017.36 1017.47 1017.28 1017.22 1017.32 1017.21 1017.20 1017.31 1017.27 1017.23 1017.29 1017.39 1017.55 1017.70 1017.82 1017.95
1017.17 1017.38 1017.23 1017.26 1017.17 1017.18 1017.12 1017.15 1017.13 1017.12 1017.14 1017.11 1017.00 1017.13 1017.50 1017.58 1017.59 1017.71 1017.54 1017.45 1017.51 1017.44 1017.48 1017.46 1017.39 1017.35 1017.36 1017.30 1017.29 1017.46 1017.67 1017.78 1017.90
1017.53 1017.54 1017.45 1017.38 1017.39 1017.32 1017.24 1017.26 1017.30 1017.29 1017.50 1017.52 1017.40 1017.56 1017.76 1017.86 1017.92 1017.87 1017.78 1017.79 1017.76 1017.85 1017.88 1017.80 1017.74 1017.68 1017.61 1017.49 1017.46 1017.44 1017.58 1017.71 1017.79
1017.65 1017.77 1017.74 1017.72 1017.52 1017.73 1017.63 1017.59 1017.65 1017.63 1017.74 1017.79 1017.85 1017.89 1018.13 1018.28 1018.26 1018.08 1018.01 1018.05 1018.19 1018.34 1018.31 1018.19 1018.15 1018.07 1017.90 1017.79 1017.71 1017.65 1017.51 1017.69 1017.69
1017.89 1017.99 1018.00 1018.09 1017.98 1018.06 1018.07 1018.09 1017.93 1017.89 1017.85 1018.01 1018.23 1018.30 1018.42 1018.59 1018.66 1018.48 1018.32 1018.33 1018.40 1018.52 1018.52 1018.46 1018.44 1018.35 1018.17 1018.28 1018.16 1018.05 1017.96 1017.90 1017.82
1017.89 1018.08 1018.12 1018.23 1018.19 1018.23 1018.20 1018.19 1018.10 1018.12 1018.13 1018.19 1018.44 1018.64 1018.77 1018.82 1018.86 1018.87 1018.62 1018.59 1018.69 1018.76 1018.73 1018.67 1018.63 1018.61 1018.60 1018.61 1018.55 1018.47 1018.33 1018.26 1018.18
1017.49 1017.86 1017.98 1018.15 1018.23 1018.16 1018.21 1018.23 1018.26 1018.34 1018.36 1018.40 1018.52 1018.71 1018.88 1018.95 1018.98 1019.00 1018.90 1018.85 1018.89 1018.99 1019.06 1018.95 1018.85 1018.81 1018.87 1018.91 1018.89 1018.80 1018.70 1018.59 1018.50
1016.39 1017.06 1017.52 1017.67 1017.90 1018.05 1018.23 1018.26 1018.31 1018.46 1018.38 1018.53 1018.59 1018.69 1018.82 1018.96 1019.08 1019.10 1019.17 1019.07 1019.05 1019.16 1019.25 1019.23 1019.11 1019.05 1019.06 1019.13 1019.12 1019.08 1019.00 1018.94 1018.86
1015.49 1016.24 1016.64 1016.93 1017.49 1017.86 1018.19 1018.43 1018.55 1018.56 1018.50 1018.55 1018.59 1018.72 1018.74 1018.85 1018.99 1019.11 1019.21 1019.27 1019.28 1019.21 1019.29 1019.34 1019.34 1019.21 1019.15 1019.20 1019.21 1019.19 1019.15 1019.10 1019.06
1014.67 1015.15 1015.57 1016.28 1017.02 1017.58 1018.04 1018.34 1018.47 1018.67 1018.70 1018.68 1018.64 1018.71 1018.81 1018.80 1018.77 1019.00 1019.16 1019.21 1019.21 1019.32 1019.14 1019.23 1019.26 1019.26 1019.12 1019.14 1019.10 1019.16 1019.13 1019.12 1019.10
1014.08 1014.52 1014.97 1015.74 1016.70 1017.30 1017.83 1018.13 1018.37 1018.45 1018.55 1018.58 1018.67 1018.72 1018.66 1018.74 1018.86 1018.84 1018.83 1019.09 1019.10 1019.13 1019.23 1019.23 1019.23 1018.99 1019.03 1018.82 1018.84 1018.99 1019.04 1018.88 1019.02
1013.74 1014.25 1014.71 1015.18 1015.74 1016.29 1017.07 1017.77 1018.25 1018.54 1018.57 1019.00 1019.02 1018.75 1018.52 1018.56 1018.61 1018.66 1018.75 1018.84 1018.85 1019.00 1019.00 1019.18 1019.20 1019.09 1018.70 1018.67 1018.62 1018.60 1018.63 1018.72 1018.95
1013.64 1013.48 1014.05 1014.67 1015.27 1015.71 1016.28 1017.00 1017.94 1018.29 1018.41 1018.96 1019.60 1019.39 1018.84 1018.50 1018.29 1018.51 1018.60 1018.56 1018.55 1018.76 1018.64 1018.88 1019.03 1018.96 1018.91 1018.76 1018.58 1018.53 1018.55 1018.62 1018.71
1013.00 1013.27 1013.58 1013.85 1014.57 1015.13 1015.55 1016.04 1016.88 1017.85 1018.30 1018.28 1018.58 1019.45 1019.24 1018.89 1018.43 1018.39 1018.39 1018.41 1018.51 1018.42 1018.48 1018.49 1018.64 1018.75 1018.77 1018.67 1018.54 1018.40 1018.41 1018.45 1018.45
1013.28 1012.98 1012.74 1013.17 1013.69 1014.38 1014.62 1015.14 1015.73 1016.71 1017.84 1018.35 1018.03 1018.14 1018.21 1018.79 1018.98 1018.51 1018.33 1018.23 1018.28 1018.33 1018.40 1018.31 1018.34 1018.43 1018.55 1018.44 1018.42 1018.29 1018.21 1018.24 1018.23
1012.99 1012.60 1012.56 1012.48 1012.80 1013.09 1013.78 1014.49 1015.07 1015.50 1016.35 1016.96 1017.67 1018.11 1018.18 1018.30 1018.76 1018.89 1018.60 1018.44 1018.14 1018.14 1018.15 1017.98 1018.18 1018.10 1018.17 1018.29 1018.26 1018.03 1017.90 1017.91 1017.97
Thickness
5763 5761 5761 5759 5757 5756 5755 5753 5752 5751 5749 5748 5747 5745 5744 5743 5742 5739 5738 5736 5734 5733 5731 5730 5728 5726 5724 5723 5721 5719 5717 5716 5714
5762 5760 5758 5758 5757 5755 5753 5752 5752 5751 5748 5746 5746 5744 5742 5741 5741 5739 5738 5736 5734 5733 5731 5729 5728 5726 5725 5724 5722 5720 5717 5716 5714
5760 5757 5757 5755 5755 5754 5752 5751 5752 5750 5748 5745 5744 5742 5741 5739 5740 5737 5737 5735 5734 5732 5730 5729 5728 5726 5725 5724 5722 5720 5718 5716 5713
5757 5755 5755 5754 5753 5751 5749 5748 5748 5749 5746 5744 5742 5740 5738 5738 5737 5736 5733 5732 5732 5731 5729 5729 5728 5726 5725 5723 5721 5720 5717 5715 5713
5754 5752 5751 5750 5750 5749 5748 5745 5744 5744 5743 5741 5740 5738 5735 5735 5734 5732 5729 5729 5729 5727 5728 5727 5725 5725 5724 5723 5721 5719 5717 5715 5713
5749 5747 5746 5745 5745 5744 5744 5742 5741 5740 5738 5738 5737 5735 5732 5731 5730 5727 5726 5725 5724 5724 5723 5723 5723 5722 5721 5721 5720 5718 5716 5715 5713
5743 5741 5740 5740 5740 5739 5739 5738 5737 5736 5735 5734 5733 5730 5728 5726 5725 5723 5721 5719 5718 5717 5717 5717 5717 5717 5717 5717 5717 5716 5714 5713 5713
5737 5736 5735 5735 5734 5733 5732 5732 5732 5731 5730 5729 5728 5726 5722 5720 5719 5718 5716 5714 5712 5710 5709 5710 5710 5710 5711 5711 5712 5712 5712 5711 5711
5731 5730 5729 5727 5727 5726 5725 5725 5724 5724 5723 5722 5722 5719 5717 5715 5713 5711 5710 5709 5707 5705 5704 5703 5703 5703 5704 5703 5704 5705 5706 5706 5706
5723 5722 5721 5720 5719 5718 5718 5718 5717 5716 5715 5714 5713 5712 5710 5708 5706 5705 5703 5702 5700 5698 5698 5697 5697 5696 5696 5696 5696 5697 5699 5699 5700
5719 5716 5715 5713 5711 5711 5710 5709 5708 5707 5706 5705 5704 5705 5703 5701 5700 5698 5697 5695 5693 5691 5690 5691 5690 5689 5688 5687 5689 5690 5691 5692 5693
5720 5715 5711 5708 5706 5704 5702 5701 5700 5698 5698 5698 5697 5696 5696 5694 5692 5691 5689 5688 5686 5685 5683 5683 5683 5682 5682 5680 5680 5682 5683 5684 5685
5717 5712 5708 5705 5701 5698 5694 5692 5690 5689 5688 5688 5688 5688 5689 5688 5686 5684 5682 5681 5680 5678 5677 5676 5676 5676 5676 5675 5674 5675 5676 5677 5678
5713 5710 5706 5699 5694 5691 5687 5684 5682 5681 5679 5679 5679 5679 5680 5680 5679 5677 5676 5675 5674 5673 5671 5670 5670 5669 5670 5669 5668 5668 5669 5670 5671
5706 5702 5699 5693 5686 5681 5676 5674 5673 5673 5671 5672 5672 5670 5671 5672 5672 5671 5670 5669 5668 5667 5666 5665 5664 5664 5663 5664 5663 5662 5662 5663 5664
5695 5691 5688 5684 5681 5676 5670 5666 5664 5661 5661 5659 5658 5662 5664 5664 5663 5664 5663 5663 5662 5661 5661 5659 5659 5658 5659 5659 5659 5658 5658 5658 5657
5684 5685 5681 5676 5672 5669 5665 5660 5654 5652 5651 5647 5640 5647 5653 5656 5656 5656 5656 5656 5656 5655 5655 5653 5652 5652 5652 5652 5652 5652 5652 5652 5651
5677 5675 5672 5671 5666 5662 5659 5655 5650 5644 5640 5642 5639 5630 5637 5639 5645 5647 5648 5649 5648 5649 5648 5647 5646 5645 5645 5645 5645 5646 5646 5645 5645
5658 5662 5664 5662 5659 5655 5653 5649 5646 5640 5634 5629 5634 5632 5634 5632 5635 5635 5638 5640 5641 5641 5641 5640 5639 5638 5637 5638 5638 5638 5638 5637 5637
5643 5648 5651 5653 5652 5651 5646 5640 5636 5635 5630 5628 5623 5620 5621 5622 5620 5622 5626 5627 5630 5632 5633 5634 5632 5632 5632 5631 5630 5630 5631 5630 5630